| time (UTC) | temp C | wind direction | speed KPH | gust KPH | rain 1hr cm | rain 24hr cm | rain mn cm | humidity % | barometer mb |
| 20260502215527 | 16 | 161 | 9.7 | 16.1 | 0.00 | 0.00 | 0.00 | 52 | 1016.1 |
| 20260502214530 | 16 | 155 | 8.0 | 19.3 | 0.00 | 0.00 | 0.00 | 52 | 1016.1 |
| 20260502213526 | 16 | 152 | 12.9 | 17.7 | 0.00 | 0.00 | 0.00 | 51 | 1016.1 |
| 20260502212527 | 17 | 154 | 8.0 | 17.7 | 0.00 | 0.00 | 0.00 | 51 | 1016.1 |
| 20260502211530 | 17 | 166 | 6.4 | 16.1 | 0.00 | 0.00 | 0.00 | 50 | 1016.1 |
| 20260502204528 | 17 | 165 | 8.0 | 16.1 | 0.00 | 0.00 | 0.00 | 48 | 1016.4 |
| 20260502203528 | 17 | 161 | 8.0 | 16.1 | 0.00 | 0.00 | 0.00 | 48 | 1016.4 |
| 20260502202526 | 18 | 168 | 9.7 | 16.1 | 0.00 | 0.00 | 0.00 | 46 | 1016.4 |
| 20260502201529 | 18 | 166 | 8.0 | 17.7 | 0.00 | 0.00 | 0.00 | 46 | 1016.4 |
| 20260502200528 | 18 | 180 | 8.0 | 17.7 | 0.00 | 0.00 | 0.00 | 45 | 1016.5 |
| 20260502195526 | 18 | 170 | 12.9 | 17.7 | 0.00 | 0.00 | 0.00 | 45 | 1016.5 |
| 20260502193528 | 19 | 150 | 9.7 | 17.7 | 0.00 | 0.00 | 0.00 | 43 | 1016.5 |
| 20260502191529 | 20 | 212 | 9.7 | 19.3 | 0.00 | 0.00 | 0.00 | 41 | 1016.5 |
| 20260502190530 | 20 | 219 | 8.0 | 24.1 | 0.00 | 0.00 | 0.00 | 41 | 1016.4 |
| 20260502185528 | 21 | 210 | 11.3 | 25.7 | 0.00 | 0.00 | 0.00 | 39 | 1016.4 |
| 20260502184530 | 21 | 209 | 14.5 | 20.9 | 0.00 | 0.00 | 0.00 | 39 | 1016.4 |
| 20260502183527 | 22 | 201 | 11.3 | 25.7 | 0.00 | 0.00 | 0.00 | 37 | 1016.4 |
| 20260502181530 | 22 | 193 | 16.1 | 22.5 | 0.00 | 0.00 | 0.00 | 35 | 1016.4 |
| 20260502180528 | 23 | 207 | 11.3 | 22.5 | 0.00 | 0.00 | 0.00 | 35 | 1016.6 |
| 20260502163527 | 25 | 203 | 16.1 | 29.0 | 0.00 | 0.00 | 0.00 | 30 | 1017.3 |
| 20260502160529 | 25 | 191 | 16.1 | 35.4 | 0.00 | 0.00 | 0.00 | 29 | 1018.1 |
| 20260502151530 | 26 | 197 | 17.7 | 30.6 | 0.00 | 0.00 | 0.00 | 28 | 1018.1 |
| 20260502150529 | 26 | 194 | 16.1 | 29.0 | 0.00 | 0.00 | 0.00 | 28 | 1018.9 |
| 20260502130529 | 28 | 179 | 17.7 | 29.0 | 0.00 | 0.00 | 0.00 | 28 | 1020.8 |
| 20260502122528 | 28 | 197 | 16.1 | 30.6 | 0.00 | 0.00 | 0.00 | 29 | 1020.8 |
| 20260502121530 | 28 | 192 | 16.1 | 32.2 | 0.00 | 0.00 | 0.00 | 30 | 1020.8 |
| 20260502113526 | 27 | 190 | 17.7 | 29.0 | 0.00 | 0.00 | 0.00 | 31 | 1021.6 |
| 20260502112529 | 27 | 207 | 20.9 | 32.2 | 0.00 | 0.00 | 0.00 | 33 | 1021.6 |
| 20260502111531 | 27 | 175 | 17.7 | 32.2 | 0.00 | 0.00 | 0.00 | 33 | 1021.6 |
| 20260502110529 | 27 | 174 | 19.3 | 32.2 | 0.00 | 0.00 | 0.00 | 34 | 1022.2 |
| 20260502105527 | 26 | 187 | 20.9 | 29.0 | 0.00 | 0.00 | 0.00 | 34 | 1022.2 |
| 20260502104532 | 26 | 195 | 19.3 | 30.6 | 0.00 | 0.00 | 0.00 | 35 | 1022.2 |
| 20260502103528 | 26 | 210 | 19.3 | 32.2 | 0.00 | 0.00 | 0.00 | 36 | 1022.2 |
| 20260502091530 | 21 | 180 | 16.1 | 24.1 | 0.00 | 0.00 | 0.00 | 44 | 1022.9 |
| 20260502090529 | 21 | 193 | 16.1 | 19.3 | 0.00 | 0.00 | 0.00 | 46 | 1023.4 |
| 20260502071531 | 16 | 173 | 4.8 | 8.0 | 0.00 | 0.00 | 0.00 | 58 | 1023.6 |
| 20260502070529 | 16 | 186 | 6.4 | 9.7 | 0.00 | 0.00 | 0.00 | 60 | 1023.9 |
| 20260502064531 | 15 | 183 | 6.4 | 8.0 | 0.00 | 0.00 | 0.00 | 62 | 1023.9 |
| 20260502062528 | 14 | 188 | 4.8 | 8.0 | 0.00 | 0.00 | 0.00 | 64 | 1023.9 |
| 20260502061531 | 13 | 163 | 4.8 | 8.0 | 0.00 | 0.00 | 0.00 | 68 | 1023.9 |
| 20260502060528 | 12 | 155 | 3.2 | 9.7 | 0.00 | 0.00 | 0.00 | 69 | 1024.2 |
| 20260502054530 | 12 | 197 | 4.8 | 9.7 | 0.00 | 0.00 | 0.00 | 69 | 1024.2 |
| 20260502053528 | 12 | 199 | 6.4 | 8.0 | 0.00 | 0.00 | 0.00 | 70 | 1024.2 |
| 20260502052527 | 11 | 186 | 6.4 | 9.7 | 0.00 | 0.00 | 0.00 | 71 | 1024.2 |
| 20260502051530 | 11 | 246 | 4.8 | 8.0 | 0.00 | 0.00 | 0.00 | 71 | 1024.2 |
| 20260502050529 | 11 | 243 | 6.4 | 8.0 | 0.00 | 0.00 | 0.00 | 72 | 1024.1 |
| 20260502045529 | 11 | 247 | 3.2 | 6.4 | 0.00 | 0.00 | 0.00 | 72 | 1024.1 |
| 20260502044529 | 11 | 128 | 3.2 | 6.4 | 0.00 | 0.00 | 0.00 | 72 | 1024.1 |
| 20260502043528 | 11 | 131 | 4.8 | 6.4 | 0.00 | 0.00 | 0.00 | 72 | 1024.1 |
| 20260502042529 | 11 | 130 | 4.8 | 6.4 | 0.00 | 0.00 | 0.00 | 72 | 1024.1 |
| 20260502041531 | 11 | 130 | 1.6 | 6.4 | 0.00 | 0.00 | 0.00 | 72 | 1024.1 |
| 20260502040529 | 11 | 142 | 3.2 | 6.4 | 0.00 | 0.00 | 0.00 | 72 | 1024.4 |
| 20260502035528 | 11 | 138 | 3.2 | 6.4 | 0.00 | 0.00 | 0.00 | 71 | 1024.4 |
| 20260502034530 | 11 | 114 | 6.4 | 6.4 | 0.00 | 0.00 | 0.00 | 71 | 1024.4 |
| 20260502033529 | 11 | 119 | 3.2 | 6.4 | 0.00 | 0.00 | 0.00 | 71 | 1024.4 |
| 20260502032528 | 11 | 119 | 3.2 | 6.4 | 0.00 | 0.00 | 0.00 | 71 | 1024.4 |
| 20260502031529 | 11 | 119 | 1.6 | 6.4 | 0.00 | 0.00 | 0.00 | 71 | 1024.4 |
| 20260502030527 | 11 | 113 | 1.6 | 9.7 | 0.00 | 0.00 | 0.00 | 70 | 1024.5 |
| 20260502024529 | 11 | 144 | 4.8 | 8.0 | 0.00 | 0.00 | 0.00 | 69 | 1024.5 |
| 20260502023527 | 11 | 147 | 3.2 | 8.0 | 0.00 | 0.00 | 0.00 | 69 | 1024.5 |
| 20260502022527 | 11 | 134 | 4.8 | 9.7 | 0.00 | 0.00 | 0.00 | 69 | 1024.5 |
| 20260502020527 | 11 | 111 | 3.2 | 8.0 | 0.00 | 0.00 | 0.00 | 69 | 1024.9 |
| 20260502015529 | 11 | 107 | 4.8 | 8.0 | 0.00 | 0.00 | 0.00 | 69 | 1024.9 |
| 20260502014529 | 11 | 167 | 1.6 | 9.7 | 0.00 | 0.00 | 0.00 | 68 | 1024.9 |
| 20260502013529 | 11 | 163 | 4.8 | 8.0 | 0.00 | 0.00 | 0.00 | 68 | 1024.9 |
| 20260502012528 | 12 | 167 | 3.2 | 8.0 | 0.00 | 0.00 | 0.00 | 67 | 1024.9 |
| 20260502011529 | 12 | 138 | 6.4 | 9.7 | 0.00 | 0.00 | 0.00 | 67 | 1024.9 |
| 20260502010528 | 12 | 140 | 3.2 | 6.4 | 0.00 | 0.00 | 0.00 | 67 | 1025.2 |
| 20260502005527 | 12 | 130 | 4.8 | 6.4 | 0.00 | 0.00 | 0.00 | 66 | 1025.2 |
| 20260502004530 | 12 | 100 | 8.0 | 9.7 | 0.00 | 0.00 | 0.00 | 66 | 1025.2 |
| 20260502003527 | 12 | 113 | 6.4 | 8.0 | 0.00 | 0.00 | 0.00 | 65 | 1025.2 |
| 20260502002528 | 12 | 102 | 9.7 | 11.3 | 0.00 | 0.00 | 0.00 | 65 | 1025.2 |
| 20260502001528 | 12 | 111 | 4.8 | 6.4 | 0.00 | 0.00 | 0.00 | 65 | 1025.2 |
| 20260502000527 | 12 | 128 | 6.4 | 8.0 | 0.00 | 0.00 | 0.00 | 64 | 1025.4 |
| 20260501234530 | 12 | 270 | 3.2 | 4.8 | 0.00 | 0.00 | 0.00 | 64 | 1025.4 |
| 20260501233529 | 13 | 279 | 0.0 | 4.8 | 0.00 | 0.00 | 0.00 | 63 | 1025.4 |
| 20260501232527 | 13 | 279 | 3.2 | 4.8 | 0.00 | 0.00 | 0.00 | 63 | 1025.4 |
| 20260501231531 | 13 | 69 | 3.2 | 4.8 | 0.00 | 0.00 | 0.00 | 62 | 1025.4 |
| 20260501225527 | 13 | 251 | 0.0 | 9.7 | 0.00 | 0.00 | 0.00 | 61 | 1025.4 |
| 20260501224531 | 13 | 242 | 3.2 | 9.7 | 0.00 | 0.00 | 0.00 | 60 | 1025.4 |
| 20260501222528 | 13 | 37 | 3.2 | 6.4 | 0.00 | 0.00 | 0.00 | 59 | 1025.5 |
| 20260501221530 | 14 | 248 | 6.4 | 6.4 | 0.00 | 0.00 | 0.00 | 58 | 1025.5 |
| 20260501220529 | 14 | 245 | 3.2 | 6.4 | 0.00 | 0.00 | 0.00 | 58 | 1025.5 |